Location: Huntsville
(41.2590°N, 111.7678°W)
Time: 19:44:22
(UTC+00:00)

Explorer 7 - Pass Details

Date: 14 June 2021
Orbit: 484 x 676 km, 50.3° (Epoch: 30 July)

Event Time Altitude Azimuth Distance (km) Brightness Sun altitude
Exits shadow 05:56:54 35° 90° (E) 1,068 8.0 -22.1°
Drops below altitude 10° 05:59:54 10° 66° (ENE) 2,042 9.7 -22.3°
Sets 06:02:14 0° 61° (ENE) 2,927 10.6 -22.5°
